Measurement date,Total daily rainfall,Maximum daily air temperature,Minimum daily air temperature
Date ,Rainfall,Air temperature,Air temperature
Units: Year month day,Units: millimetre,Units: degree Celsius,Units: degree Celsius
2004-03-10,0.0,6.0,-0.2
2004-03-11,0.0,4.8,1.0
2004-03-12,0.4,4.8,1.1
2004-03-13,9.2,9.0,1.7
2004-03-14,2.7,10.7,3.6
2004-03-15,7.3,11.4,7.0
2004-03-16,2.8,10.0,7.5
2004-03-17,24.0,ND,10.5
2004-03-18,10.5,12.5,ND
2004-03-19,6.0,10.0,2.6
2004-03-20,1.7,12.6,3.1
2004-03-21,0.0,9.7,4.0
2004-03-22,0.1,9.4,3.5
2004-03-23,0.2,9.1,1.4
2004-03-24,0.8,9.7,1.1
2004-03-25,0.4,10.0,3.6
2004-03-26,0.0,10.2,4.0
2004-03-27,0.0,13.7,5.5
2004-03-28,0.0,14.0,6.8
2004-03-29,0.0,11.8,4.8
2004-03-30,0.0,14.5,5.2
2004-03-31,0.0,14.3,3.6
2004-04-01,12.6,12.4,5.1
2004-04-02,8.0,13.0,6.7
2004-04-03,3.4,11.0,7.0
2004-04-04,3.5,10.0,4.0
2004-04-05,1.2,9.5,4.9
2004-04-06,0.5,12.2,4.5
2004-04-07,0.5,11.5,2.2
2004-04-08,0.6,11.0,3.1
2004-04-09,0.2,13.6,4.5
2004-04-10,0.0,11.9,7.8
2004-04-11,3.3,13.3,7.0
2004-04-12,0.0,13.4,7.2
2004-04-13,2.3,11.6,6.1
2004-04-14,0.4,11.5,7.8
2004-04-15,7.2,9.0,7.6
2004-04-16,0.0,12.8,4.9
2004-04-17,18.2,10.5,-0.2
2004-04-18,2.5,11.2,2.0
2004-04-19,3.0,10.1,5.8
2004-04-20,9.1,12.3,5.8
2004-04-21,1.7,14.0,6.5
2004-04-22,0.0,13.9,6.4
2004-04-23,0.0,12.0,6.2
2004-04-24,0.0,15.3,9.0
2004-04-25,0.0,17.1,7.9
2004-04-26,1.3,18.0,3.5
2004-04-27,0.4,11.0,9.0
2004-04-28,0.0,12.7,7.6
2004-04-29,0.0,12.5,4.5
2004-04-30,0.0,13.5,8.3
2004-05-01,0.0,19.1,7.1
2004-05-02,0.0,16.2,6.2
2004-05-03,11.7,12.7,5.8
2004-05-04,0.2,11.5,5.6
2004-05-05,1.4,12.6,1.5
2004-05-06,0.1,13.5,6.5
2004-05-07,3.4,13.0,4.0
2004-05-08,1.1,16.8,4.0
2004-05-09,0.0,17.0,5.0
2004-05-10,7.9,21.0,10.5
2004-05-11,0.0,15.3,7.9
2004-05-12,0.0,16.0,9.7
2004-05-13,0.4,15.8,8.0
2004-05-14,0.0,17.9,7.5
2004-05-15,0.0,19.6,10.8
2004-05-16,0.0,12.5,9.2
2004-05-17,0.0,19.5,9.6
2004-05-18,0.0,17.5,5.5
2004-05-19,0.0,16.1,11.5
2004-05-20,1.4,16.5,6.3
2004-05-21,3.6,16.7,4.4
2004-05-22,0.0,16.7,2.0
2004-05-23,0.0,18.5,3.5
2004-05-24,0.0,17.8,5.8
2004-05-25,0.0,15.2,5.6
2004-05-26,0.0,16.7,5.7
2004-05-27,0.0,18.6,4.5
2004-05-28,5.0,15.0,8.6
2004-05-29,0.6,15.9,11.5
2004-05-30,0.0,18.2,9.8
2004-05-31,0.0,19.0,5.8
2004-06-01,0.0,18.4,10.5
2004-06-02,1.4,19.0,8.6
2004-06-03,7.8,18.0,10.9
2004-06-04,3.0,19.0,12.2
2004-06-05,0.1,19.4,12.1
2004-06-06,0.0,18.2,13.2
2004-06-07,0.0,20.2,12.7
2004-06-08,0.0,20.7,12.9
2004-06-09,0.0,19.2,12.9
2004-06-10,0.5,18.6,13.3
2004-06-11,0.0,17.0,12.0
2004-06-12,0.0,21.6,11.1
2004-06-13,0.0,21.2,7.5
2004-06-14,0.0,21.4,11.6
2004-06-15,0.0,19.0,15.0
2004-06-16,ND,20.1,10.9
2004-06-17,0.0,18.6,11.4
2004-06-18,1.5,14.1,8.7
2004-06-19,8.2,13.2,5.9
2004-06-20,1.0,15.5,7.5
2004-06-21,5.1,17.0,4.9
2004-06-22,1.1,19.5,6.5
2004-06-23,23.4,18.0,11.9
2004-06-24,3.0,12.7,9.3
2004-06-25,3.7,18.9,7.4
2004-06-26,0.0,15.4,6.7
2004-06-27,10.0,17.0,10.8
2004-06-28,1.7,16.4,8.0
2004-06-29,0.6,16.1,10.6
2004-06-30,10.2,16.6,13.4
2004-07-01,1.3,16.0,9.4
2004-07-02,8.4,16.4,10.6
2004-07-03,0.0,18.4,9.5
2004-07-04,21.3,17.6,11.6
2004-07-05,0.5,17.7,8.0
2004-07-06,0.0,17.0,9.4
2004-07-07,3.3,21.5,7.5
2004-07-08,0.0,15.9,8.8
2004-07-09,0.4,16.4,7.6
2004-07-10,0.3,14.9,10.5
2004-07-11,0.0,17.4,11.3
2004-07-12,0.0,19.7,10.6
2004-07-13,2.6,19.4,9.4
2004-07-14,0.0,19.4,12.8
2004-07-15,1.4,17.3,12.0
2004-07-16,7.3,19.0,12.8
2004-07-17,0.0,18.0,11.1
2004-07-18,0.0,18.2,10.7
2004-07-19,2.0,18.9,11.1
2004-07-20,3.7,20.5,11.0
2004-07-21,0.0,18.5,14.3
2004-07-22,0.0,19.0,13.5
2004-07-23,1.0,18.0,12.4
2004-07-24,4.0,16.7,11.0
2004-07-25,0.0,20.3,11.2
2004-07-26,0.0,18.0,7.1
2004-07-27,0.0,18.8,12.6
2004-07-28,0.3,22.5,15.3
2004-07-29,0.2,21.0,14.9
2004-07-30,0.0,22.0,14.9
2004-07-31,0.0,21.9,14.2
2004-08-01,0.0,23.6,10.6
2004-08-02,0.0,24.0,13.0
2004-08-03,15.0,20.5,16.2
2004-08-04,0.0,20.8,16.5
2004-08-05,23.4,23.9,15.0
2004-08-06,0.0,20.8,15.7
2004-08-07,0.0,23.5,11.6
2004-08-08,29.3,27.4,14.4
2004-08-09,17.9,20.3,18.4
2004-08-10,48.0,19.2,16.5
2004-08-11,4.1,23.6,17.5
2004-08-12,12.1,19.5,14.0
2004-08-13,0.0,22.0,14.0
2004-08-14,1.2,22.5,10.6
2004-08-15,10.5,21.2,15.1
2004-08-16,7.7,20.6,14.4
2004-08-17,3.5,20.6,11.7
2004-08-18,4.3,20.9,14.5
2004-08-19,8.0,17.0,14.0
2004-08-20,0.2,19.2,11.6
2004-08-21,0.0,18.6,8.7
2004-08-22,0.0,18.5,6.6
2004-08-23,0.3,16.0,12.2
2004-08-24,5.3,20.6,13.7
2004-08-25,0.0,20.7,13.2
2004-08-26,11.2,18.0,8.9
2004-08-27,0.0,17.6,12.8
2004-08-28,1.5,17.2,9.4
2004-08-29,1.4,16.2,12.6
2004-08-30,0.0,19.1,11.1
2004-08-31,0.0,18.3,8.5
2004-09-01,0.0,17.9,7.9
2004-09-02,0.0,17.2,10.9
2004-09-03,0.0,17.0,14.0
2004-09-04,0.0,21.2,14.5
2004-09-05,0.0,20.5,15.3
2004-09-06,0.0,17.2,14.3
2004-09-07,0.0,20.4,10.6
2004-09-08,0.0,22.1,7.6
2004-09-09,0.0,24.2,6.2
2004-09-10,9.9,22.4,9.9
2004-09-11,2.5,17.5,14.0
2004-09-12,12.5,15.6,10.9
2004-09-13,25.9,14.0,10.6
2004-09-14,0.6,16.1,9.8
2004-09-15,2.4,15.7,6.3
2004-09-16,0.0,ND,8.7
2004-09-17,29.8,16.5,ND
2004-09-18,0.0,15.6,10.6
2004-09-19,16.2,14.1,9.9
2004-09-20,3.1,14.0,11.3
2004-09-21,0.6,13.5,11.6
2004-09-22,0.0,13.9,9.6
2004-09-23,0.0,16.2,9.4
2004-09-24,1.1,16.4,5.4
2004-09-25,0.0,16.0,7.7
2004-09-26,0.3,15.4,11.5
2004-09-27,0.0,18.5,11.4
2004-09-28,0.4,16.5,12.0
2004-09-29,9.4,14.4,9.6
2004-09-30,0.5,16.3,10.5
2004-10-01,8.6,13.3,6.9
2004-10-02,0.2,13.6,9.6
2004-10-03,29.6,13.3,10.0
2004-10-04,3.8,12.8,7.8
2004-10-05,2.9,12.6,7.7
2004-10-06,1.3,11.2,8.2
2004-10-07,0.1,16.6,6.2
2004-10-08,0.0,13.5,5.5
2004-10-09,0.0,11.5,3.2
2004-10-10,0.0,13.0,6.6
2004-10-11,0.0,12.7,6.8
2004-10-12,1.4,13.0,7.3
2004-10-13,1.2,12.7,8.4
2004-10-14,0.0,11.2,7.4
2004-10-15,2.1,14.0,5.6
2004-10-16,0.3,10.9,8.3
2004-10-17,0.0,12.2,7.7
2004-10-18,11.2,12.2,5.0
2004-10-19,8.1,10.5,6.9
2004-10-20,15.9,10.1,8.0
2004-10-21,6.8,11.2,5.8
2004-10-22,6.3,11.8,6.3
2004-10-23,14.1,12.7,5.6
2004-10-24,17.9,13.2,0.6
2004-10-25,0.1,14.4,8.5
2004-10-26,1.2,11.1,4.5
2004-10-27,3.0,11.3,5.0
2004-10-28,1.0,14.8,6.7
2004-10-29,8.9,13.0,6.7
2004-10-30,0.0,14.6,8.5
2004-10-31,0.0,11.8,7.5
2004-11-01,0.0,10.9,8.2
2004-11-02,1.9,10.8,4.2
2004-11-03,0.0,12.5,7.6
2004-11-04,3.8,10.4,6.7
2004-11-05,4.7,12.5,5.6
2004-11-06,2.5,13.5,8.9
2004-11-07,0.0,12.8,10.2
2004-11-08,0.1,11.3,8.2
2004-11-09,0.0,11.1,6.4
2004-11-10,0.0,10.8,4.6
2004-11-11,0.0,12.8,2.4
2004-11-12,0.0,10.5,9.6
2004-11-13,0.0,8.5,8.2
2004-11-14,0.0,10.0,2.5
2004-11-15,1.9,11.1,8.4
2004-11-16,0.0,12.4,8.0
2004-11-17,0.3,11.3,2.4
2004-11-18,0.0,5.8,5.4
2004-11-19,0.0,4.9,-1.7
2004-11-20,0.4,2.6,-2.1
2004-11-21,3.8,11.6,-3.5
2004-11-22,0.3,11.4,0.1
2004-11-23,0.0,10.6,8.9
2004-11-24,2.2,10.8,9.5
2004-11-25,4.7,11.4,9.8
2004-11-26,0.1,9.9,7.6
2004-11-27,1.9,8.8,4.8
2004-11-28,0.0,7.7,3.0
2004-11-29,2.2,8.3,-2.5
2004-11-30,5.6,8.5,0.2
2004-12-01,ND,6.3,5.1
2004-12-02,1.6,8.7,-1.7
2004-12-03,0.0,11.5,-2.0
2004-12-04,0.1,10.6,7.9
2004-12-05,0.4,11.2,6.8
2004-12-06,0.5,10.9,7.4
2004-12-07,0.0,9.4,4.0
2004-12-08,0.0,10.5,0.0
2004-12-09,0.0,7.9,6.1
2004-12-10,0.5,8.4,4.9
2004-12-11,0.5,10.0,4.1
2004-12-12,ND,7.7,6.1
2004-12-13,7.4,10.3,5.8
2004-12-14,8.6,12.2,5.6
2004-12-15,7.4,9.3,5.6
2004-12-16,10.6,8.7,4.9
2004-12-17,2.8,5.6,2.4
2004-12-18,0.0,4.8,1.2
2004-12-19,1.1,4.4,-1.3
2004-12-20,0.3,5.0,-3.1
2004-12-21,14.4,11.3,-1.4
2004-12-22,3.5,11.7,0.7
2004-12-23,4.1,10.4,5.9
2004-12-24,13.8,6.6,3.9
2004-12-25,0.1,2.4,0.0
2004-12-26,0.0,6.7,-1.1
2004-12-27,12.5,9.4,-2.1
2004-12-28,3.4,7.2,1.5
2004-12-29,3.6,11.9,1.2
2004-12-30,5.0,11.6,7.1
2004-12-31,0.0,9.8,4.3
2005-01-01,18.8,5.4,5.0
2005-01-02,1.1,8.4,1.3
2005-01-03,1.8,10.1,2.2
2005-01-04,1.2,8.2,7.0
2005-01-05,8.5,8.7,5.0
2005-01-06,9.7,11.9,4.1
2005-01-07,47.6,11.0,7.7
2005-01-08,6.1,9.1,3.9
2005-01-09,13.2,11.6,3.0
2005-01-10,0.5,9.4,8.4
2005-01-11,5.7,9.9,7.2
2005-01-12,6.3,6.6,2.1
2005-01-13,0.3,6.7,2.0
2005-01-14,4.3,10.9,0.5
2005-01-15,2.9,11.3,3.6
2005-01-16,2.1,9.4,8.2
2005-01-17,5.0,7.6,7.0
2005-01-18,3.8,5.6,0.6
2005-01-19,2.7,11.1,1.9
2005-01-20,1.6,8.5,5.1
2005-01-21,0.0,5.7,2.7
2005-01-22,0.0,1.1,-2.8
2005-01-23,0.3,4.8,-2.4
2005-01-24,0.0,3.7,-0.5
2005-01-25,0.0,7.6,1.6
2005-01-26,0.0,8.1,3.6
2005-01-27,0.0,9.7,4.6
2005-01-28,0.0,9.1,3.8
2005-01-29,0.0,9.1,-1.4
2005-01-30,0.0,10.3,0.7
2005-01-31,0.0,12.5,7.1
2005-02-01,0.1,11.6,7.1
2005-02-02,1.0,9.9,4.6
2005-02-03,0.1,10.6,6.6
2005-02-04,8.5,10.6,5.5
2005-02-05,0.0,ND,3.5
2005-02-06,0.0,7.2,ND
2005-02-07,4.3,7.3,2.6
2005-02-08,8.3,8.0,5.2
2005-02-09,7.7,9.6,5.7
2005-02-10,0.1,7.9,4.3
2005-02-11,13.0,9.3,2.3
2005-02-12,3.6,8.0,3.9
2005-02-13,0.1,6.8,1.0
2005-02-14,0.0,6.9,1.9
2005-02-15,0.0,8.5,-0.5
2005-02-16,0.0,6.6,2.7
2005-02-17,0.0,9.9,0.1
2005-02-18,0.0,9.5,5.5
2005-02-19,0.0,5.2,0.2
2005-02-20,0.0,5.6,-1.3
2005-02-21,0.0,7.0,0.0
2005-02-22,0.0,5.7,0.4
2005-02-23,0.0,4.4,-0.9
2005-02-24,0.0,5.5,-0.1
2005-02-25,0.0,6.9,1.4
2005-02-26,0.0,8.5,1.0
2005-02-27,0.0,7.6,2.4
2005-02-28,0.6,5.4,1.2
2005-03-01,0.1,5.0,1.4
2005-03-02,1.1,6.2,-0.1
2005-03-03,1.0,7.3,-0.6
2005-03-04,0.0,7.7,2.1
2005-03-05,0.0,8.2,2.1
2005-03-06,0.0,8.1,-1.5
2005-03-07,0.0,9.2,1.5
2005-03-08,1.0,9.8,-0.6
2005-03-09,0.1,9.1,-1.1
2005-03-10,0.0,9.6,3.1
2005-03-11,0.0,8.6,6.5
2005-03-12,0.0,8.4,1.3
2005-03-13,0.0,6.8,-2.4
2005-03-14,14.1,9.9,-1.4
2005-03-15,4.1,9.5,5.1
2005-03-16,3.6,12.4,7.2
2005-03-17,0.1,15.6,8.2
2005-03-18,0.0,12.9,9.0
2005-03-19,0.1,10.9,6.9
2005-03-20,0.0,16.8,4.6
2005-03-21,16.9,15.1,4.8
2005-03-22,0.4,13.6,8.8
2005-03-23,1.5,12.3,8.6
2005-03-24,0.2,14.7,8.8
2005-03-25,0.0,15.0,8.5
2005-03-26,0.0,10.8,6.5
2005-03-27,9.6,9.6,6.9
2005-03-28,0.1,8.7,5.8
2005-03-29,0.0,10.4,6.2
2005-03-30,0.0,9.3,6.0
2005-03-31,0.0,13.8,4.8
2005-04-01,0.6,11.7,6.2
2005-04-02,0.0,16.6,7.4
2005-04-03,0.2,14.2,5.1
2005-04-04,0.4,12.0,5.0
2005-04-05,18.3,11.4,4.7
2005-04-06,6.6,9.6,6.8
2005-04-07,0.7,10.2,2.4
2005-04-08,0.2,7.0,0.4
2005-04-09,2.3,10.8,1.1
2005-04-10,0.0,15.1,5.4
2005-04-11,0.7,14.0,6.4
2005-04-12,0.4,12.1,6.8
2005-04-13,0.0,9.8,1.5
2005-04-14,1.5,9.5,4.0
2005-04-15,0.4,8.6,5.4
2005-04-16,0.4,8.0,3.1
2005-04-17,28.1,9.3,4.4
2005-04-18,0.1,12.2,6.9
2005-04-19,0.6,14.2,2.1
2005-04-20,0.0,12.2,2.0
2005-04-21,0.0,13.7,1.0
2005-04-22,0.0,15.2,5.2
2005-04-23,0.0,15.1,3.0
2005-04-24,0.0,15.4,1.3
2005-04-25,2.2,16.6,2.4
2005-04-26,7.3,12.9,4.9
2005-04-27,15.1,12.7,7.5
2005-04-28,2.4,8.0,7.3
2005-04-29,0.0,14.2,13.3
2005-04-30,0.9,14.5,6.8
2005-05-01,6.0,12.9,11.5
2005-05-02,8.3,15.0,10.1
2005-05-03,3.8,14.9,10.6
2005-05-04,0.0,15.0,8.0
2005-05-05,0.4,13.3,9.8
2005-05-06,0.9,12.4,6.2
2005-05-07,0.0,12.5,4.9
2005-05-08,0.0,12.5,4.3
2005-05-09,0.0,12.0,2.7
2005-05-10,0.0,13.8,0.4
2005-05-11,0.0,14.0,1.4
2005-05-12,0.0,16.5,1.9
2005-05-13,0.0,16.0,3.4
2005-05-14,0.0,17.0,5.4
2005-05-15,0.0,17.5,7.7
2005-05-16,0.0,12.3,7.6
2005-05-17,1.3,11.3,2.2
2005-05-18,18.7,11.4,4.2
2005-05-19,4.4,14.0,6.2
2005-05-20,1.7,14.4,10.9
2005-05-21,10.2,13.7,7.4
2005-05-22,3.4,14.2,7.4
2005-05-23,3.0,11.5,6.4
2005-05-24,3.4,13.4,5.7
2005-05-25,10.1,13.8,10.0
2005-05-26,1.8,16.9,11.2
2005-05-27,1.3,16.3,9.7
2005-05-28,0.3,14.3,10.3
2005-05-29,0.0,15.0,7.6
2005-05-30,0.0,16.0,4.2
2005-05-31,4.0,15.7,3.1
2005-06-01,10.2,14.4,3.3
